Location: Helsinki
(60.1699°N, 24.9384°E)
Time: 19:51:31
(UTC+03:00)

A-11 Canister half - All Passes

Search period start: 21 October 2020 00:00
Search period end: 30 October 2020 23:00
Orbit: 1526 x 1682 km, 47.3° (Epoch: 20 October)

Date Brightness Start Highest point End Pass type
(mag) Time Alt. Az. Time Alt. Az. Time Alt. Az.
21 Oct - 00:24:20 10° W 00:29:53 18° SW 00:35:30 10° S visible
21 Oct - 17:52:15 10° SSW 17:59:27 26° SSE 18:06:35 10° E daylight
21 Oct - 19:54:13 10° SW 20:02:28 37° S 20:10:41 10° ESE visible
21 Oct - 21:57:46 10° WSW 22:05:42 33° SSW 22:13:39 10° SE visible
22 Oct - 00:02:38 10° W 00:08:22 18° SW 00:14:09 10° S visible
22 Oct - 17:30:47 10° SSW 17:37:54 25° SSE 17:44:57 10° E daylight
22 Oct - 19:32:39 10° SW 19:40:54 37° S 19:49:05 10° ESE visible
22 Oct - 21:36:10 10° WSW 21:44:08 34° SSW 21:52:07 10° SE visible
22 Oct - 23:40:56 10° W 23:46:50 19° SW 23:52:48 10° S visible
23 Oct - 17:09:20 10° SSW 17:16:21 24° SSE 17:23:18 10° E daylight
23 Oct - 19:11:06 10° SW 19:19:20 36° S 19:27:30 10° ESE visible
23 Oct - 21:14:33 10° WSW 21:22:35 34° SSW 21:30:36 10° SE visible
23 Oct - 23:19:14 10° W 23:25:19 20° SW 23:31:26 10° S visible
24 Oct - 16:47:54 10° SSW 16:54:49 24° SSE 17:01:40 10° E daylight
24 Oct - 18:49:32 10° SW 18:57:46 36° S 19:05:55 10° ESE visible
24 Oct - 20:52:57 10° WSW 21:01:01 34° SSW 21:09:03 10° SE visible
24 Oct - 22:57:33 10° W 23:03:47 20° SW 23:10:03 10° S visible
25 Oct - 15:26:27 10° SSW 15:33:16 23° SE 15:40:01 10° E daylight
25 Oct - 17:27:58 10° SW 17:36:12 36° S 17:44:20 10° ESE visible
25 Oct - 19:31:21 10° WSW 19:39:27 35° SSW 19:47:31 10° SE visible
25 Oct - 21:35:53 10° W 21:42:16 21° SW 21:48:40 10° S visible
26 Oct - 15:05:02 10° S 15:11:45 22° SE 15:18:22 10° E daylight
26 Oct - 17:06:25 10° SW 17:14:38 35° SSE 17:22:44 10° ESE visible
26 Oct - 19:09:45 10° WSW 19:17:53 35° SSW 19:25:59 10° SE visible
26 Oct - 21:14:12 10° W 21:20:44 22° SW 21:27:16 10° S visible
27 Oct - 14:43:36 10° S 14:50:12 22° SE 14:56:43 10° E daylight
27 Oct - 16:44:52 10° SW 16:53:04 35° SSE 17:01:09 10° ESE daylight
27 Oct - 18:48:08 10° WSW 18:56:19 36° SSW 19:04:26 10° SE visible
27 Oct - 20:52:32 10° W 20:59:12 23° SW 21:05:51 10° SSE visible
28 Oct - 14:22:11 10° S 14:28:40 21° SE 14:35:03 10° E daylight
28 Oct - 16:23:18 10° SW 16:31:30 35° SSE 16:39:34 10° ESE daylight
28 Oct - 18:26:32 10° WSW 18:34:45 36° S 18:42:54 10° SE visible
28 Oct - 20:30:52 10° W 20:37:40 23° SW 20:44:27 10° SSE visible
29 Oct - 14:00:47 10° S 14:07:07 20° SE 14:13:23 10° E daylight
29 Oct - 16:01:45 10° SW 16:09:55 34° SSE 16:17:58 10° ESE daylight
29 Oct - 18:04:56 10° WSW 18:13:11 36° S 18:21:21 10° SE visible
29 Oct - 20:09:13 10° W 20:16:07 24° SSW 20:23:01 10° SSE visible
30 Oct - 13:39:23 10° S 13:45:36 20° SE 13:51:42 10° E daylight
30 Oct - 15:40:12 10° SW 15:48:21 34° SSE 15:56:23 10° ESE daylight
30 Oct - 17:43:20 10° WSW 17:51:37 37° S 17:59:48 10° SE visible
30 Oct - 19:47:33 10° W 19:54:35 25° SSW 20:01:35 10° SSE visible
